Regional Weather Roundup
Issued by NWS

Home | Current Version | Previous Version | Text Only | Print | Product List | Glossary On
Versions: 1 2 3 4 5 6 7 8 9 10 11 12 13 14 15 16 17 18 19 20 21 22 23 24 25 26 27 28 29 30 31 32 33 34 35 36 37 38 39 40 41 42 43 44 45 46 47 48 49 50
211
ASUS43 KOAX 181602
RWRNE

WEATHER ROUNDUP FOR NEBRASKA
NATIONAL WEATHER SERVICE OMAHA NE
1000 AM CST SAT NOV 18 2017

NOTES: SATELLITE DATA IS BEING USED TO AUGMENT CLOUD COVER ABOVE
       12000 FEET.
       "FAIR" INDICATES FEW OR NO CLOUDS BELOW 12,000 FEET WITH NO
       SIGNIFICANT WEATHER AND/OR OBSTRUCTIONS TO VISIBILITY.


NEZ001>004-019>022-054>056-181700-
NEBRASKA PANHANDLE

CITY           SKY/WX    TMP DP  RH WIND       PRES   REMARKS
SCOTTSBLUFF    SUNNY     34  20  56 W14       30.23R WCI  25
ALLIANCE       SUNNY     35  20  54 NW14      30.18R WCI  26
CHADRON        SUNNY     35  21  56 NW15      30.21R WCI  25
GORDON         FAIR      34  25  69 W14       30.14R WCI  25
KIMBALL        SUNNY     32  18  55 NW21G30   30.22S WCI  20
SIDNEY         SUNNY     34  22  61 NW16      30.23R WCI  24
$$

NEZ057>060-069>072-079>082-181700-
SOUTHWEST NEBRASKA

CITY           SKY/WX    TMP DP  RH WIND       PRES   REMARKS
NORTH PLATTE   SUNNY     42  29  59 NW20G26   30.15R
IMPERIAL       SUNNY     39  23  52 NW24G30   30.20R WCI  28
LEXINGTON      SUNNY     42  32  66 NW24G33   30.11R
MCCOOK         SUNNY     42  31  64 NW22G31   30.16R
OGALLALA       SUNNY     38  26  62 NW16G22   30.20R WCI  29
$$

NEZ005>010-023>029-035>040-094-181700-
NORTH CENTRAL NEBRASKA

CITY           SKY/WX    TMP DP  RH WIND       PRES   REMARKS
VALENTINE      SUNNY     40  26  57 NW18G30   30.11R WCI  31
AINSWORTH      SUNNY     38  29  71 NW24      30.10R WCI  27
BROKEN BOW     SUNNY     41  30  65 NW21G33   30.09R
O`NEILL        SUNNY     38  31  73 NW28G33   30.05R WCI  27
ORD            SUNNY     41  33  73 NW24G33   30.05R
THEDFORD       SUNNY     39  29  65 NW21G26   30.13R WCI  29
$$

NEZ041-046>049-061>064-073>077-083>087-181700-
SOUTH CENTRAL NEBRASKA

CITY           SKY/WX    TMP DP  RH WIND       PRES   REMARKS
GRAND ISLAND   SUNNY     43  36  76 NW26G37   30.03R
AURORA         CLOUDY    43  38  82 NW22G35   30.01R
HASTINGS       SUNNY     43  35  73 NW25G38   30.03R
HEBRON         CLOUDY    44  38  79 NW16G22   30.00R
HOLDREGE       SUNNY     41  34  76 NW21G29   30.09R
KEARNEY        SUNNY     42  32  67 N24G30    30.07R
YORK           MOSUNNY   41  39  93 NW23G32   29.98R
$$

NEZ011>018-030>034-042>045-181700-
NORTHEAST NEBRASKA

CITY           SKY/WX    TMP DP  RH WIND       PRES   REMARKS
NORFOLK        MOSUNNY   42  36  79 NW24G37   29.95R
ALBION         SUNNY     43  35  71 NW22G29   30.00R
BLAIR          CLOUDY    40  29  64 NW22      29.90R WCI  29
COLUMBUS       CLOUDY    40  36  86 NW21      29.98R WCI  30
FREMONT        MOSUNNY   41  35  76 NW20G26   29.94R
TEKAMAH        PTSUNNY   39  27  62 NW20G26   29.93R WCI  29
WAYNE          CLOUDY    39  33  80 NW21G29   29.95R WCI  29
$$

NEZ050>053-065>068-078-088>093-181700-
SOUTHEAST NEBRASKA

CITY           SKY/WX    TMP DP  RH WIND       PRES   REMARKS
LINCOLN        MOSUNNY   45  36  70 N22       29.96R
OMAHA EPPLEY   CLOUDY    40  29  64 NW18      29.90R WCI  31
BEATRICE       PTSUNNY   43  37  79 NW24G31   29.96R
FALLS CITY     PTSUNNY   41  34  76 NW23G31   29.88R
NEBRASKA CITY  CLOUDY    40  34  78 N20       29.89R WCI  31
PLATTSMOUTH    PTSUNNY   40  32  73 NW21      29.89R WCI  30
$$

NEZ044-045-051>053-067-181700-
OMAHA AREA

CITY           SKY/WX    TMP DP  RH WIND       PRES   REMARKS
OMAHA EPPLEY   CLOUDY    40  29  64 NW18      29.90R WCI  31
BLAIR          CLOUDY    40  29  64 NW22      29.90R WCI  29
FREMONT        MOSUNNY   41  35  76 NW20G26   29.94R
MILLARD        PTSUNNY   40  29  64 NW16      29.93R WCI  32
OFFUTT AFB     PTSUNNY   42  27  56 NW16G23   29.90R
PLATTSMOUTH    PTSUNNY   40  32  73 NW21      29.89R WCI  30
WAHOO          FAIR      43  36  76 NW21G26   29.93R
$$




USA.gov is the U.S. government's official web portal to all federal, state and local government web resources and services.